Regional Weather Roundup
Issued by NWS

Home | Current Version | Previous Version | Text Only | Print | Product List | Glossary Off
Versions: 1 2 3 4 5 6 7 8 9 10 11 12 13 14 15 16 17 18 19 20 21 22 23 24 25 26 27 28 29 30 31 32 33 34 35 36 37 38 39 40 41 42 43 44 45 46 47 48 49 50

000
ASUS43 KLSX 190659
RWRMO

WEATHER SUMMARY FOR MISSOURI
NATIONAL WEATHER SERVICE SPRINGFIELD MO
100 AM CST FRI DEC 19 2014

NOTE: "FAIR" INDICATES FEW OR NO CLOUDS BELOW 12,000 FEET WITH NO
       SIGNIFICANT WEATHER AND/OR OBSTRUCTIONS TO VISIBILITY.
       CURRENT SKY AND/OR WEATHER CONDITIONS ARE NOT AVAILABLE FOR
       CHILLICOTHE AND FARMINGTON.

MOZ001>031-035>038-043-044-053-054-190800-
...NORTHERN AND WESTERN MISSOURI...

CITY           SKY/WX    TMP DP  RH WIND       PRES   REMARKS
KANSAS CTY INT CLOUDY    30  29  96 CALM      30.25F FOG
KANSAS C DTWN  CLOUDY    32  31  96 CALM      30.26F FOG
LEE`S SUMMIT   CLOUDY    31  30  96 E3        30.25F FOG
ST JOSEPH      CLOUDY    31  28  89 CALM      30.27F
CHILLICOTHE      N/A     31  27  85 CALM      30.29F
KIRKSVILLE     CLOUDY    29  27  92 SE3       30.28F

$$
MOZ066>068-077>081-088>096-101>105-190800-
...SOUTHWEST MISSOURI...

CITY           SKY/WX    TMP DP  RH WIND       PRES   REMARKS
SPRINGFIELD    CLOUDY    37  36  96 SE5       30.20F FOG
JOPLIN         CLOUDY    36  35  96 N3        30.23F FOG

$$
MOZ032>034-039>042-045>050-055>058-069>072-190800-
...CENTRAL MISSOURI...

CITY           SKY/WX    TMP DP  RH WIND       PRES   REMARKS
COLUMBIA       CLOUDY    32  30  92 E3        30.26F FOG
JEFFERSON CITY CLOUDY    34  31  88 E5        30.28S WCI  30
ROLLA          FOG       32  32 100 E5        30.22F VSB 1/4 WCI  27
SEDALIA        CLOUDY    33  32  96 E5        30.26F FOG     WCI  29
WARRENSBURG    CLOUDY    32  32 100 NE3       30.26S FOG
OSAGE BEACH    CLOUDY    36  32  87 NE3       30.24F VSB 3/4

$$
MOZ051-052-059>065-190800-
...EAST CENTRAL MISSOURI...

CITY           SKY/WX    TMP DP  RH WIND       PRES   REMARKS
ST LOUIS INTL  CLOUDY    34  26  72 NE3       30.29F
SPIRIT OF STL  CLOUDY    33  29  85 CALM      30.28F
ST CHARLES     CLOUDY    32  27  81 NE3       30.29F

$$
MOZ072>076-082>087-097>100-106>115-190800-
...SOUTH CENTRAL AND SOUTHEAST MISSOURI...

CITY           SKY/WX    TMP DP  RH WIND       PRES   REMARKS
CAPE GIRARDEAU CLOUDY    35  32  88 NE3       30.28S
FARMINGTON     CLOUDY    34  34 100 CALM      30.26F
POPLAR BLUFF   CLOUDY    36  32  85 NE5       30.26F
WEST PLAINS    CLOUDY    36  34  92 CALM      30.22F FOG

$$



USA.gov is the U.S. government's official web portal to all federal, state and local government web resources and services.